SL-12 DEB, 42974

Orbit data source: Space-Track

SL-12 DEB, 42974 is space debris in HEO originally from a launch on Thu, 02 Sep 2010 UTC launched from the Tyuratam Missile And Space Complex (TTMTR). Debris objects in space refer to the collection of defunct objects orbiting the Earth. Examples of debris include non-operational satellites, rocket bodies, and fragments generated from explosions, collisions, or faulty payload assembly.

Loading next visibility...
Identifier
42974, 2010-041P
Orbit
HEO
Country
Flag of CISCIS
Related business
Manufacturer
RKKE
Mission
Spacecraft
Bus & Motor
Unknown
Mass
Unknown
Launch date (UTC)
2010-09-02 (15 years ago)
Launch vehicle
Unknown
Launch site
Tyuratam Missile And Space Complex (TTMTR)
Object type
Payload
Rocket body
Debris
Shape & HBR
Unknown shape, 0.6 m
Radar Cross Section
Medium (>0.1 m² and <1 m²)

Expand to show TLE details & history
Last TLE update: 22 hours ago

TLE from 22 hours ago
0 SL-12 DEB
1 42974U 10041P   25286.73796828  .00000184  00000-0  41971-3 0  9993
2 42974  64.7889 151.6143 5666257 320.4003   9.6445  4.32607014127274
Epoch: 2025-10-13T17:42Z
TLE epoch observation values (Epoch: 2025-10-13T17:42:40.459Z)
Latitude
-0.00015°
Longitude
-136.58904°
Altitude
1,150.559 km
Speed
8.992 km/s
True Right ascension
10h 06m 27s
True Declination
0° 00' 01"
Sunlit
Object was in daylight at epoch
Visualization orbit readout
Latitude
Unknown
Longitude
Unknown
Altitude
Unknown
Speed
Unknown
Apparent Right ascension
Unknown
Apparent Declination
Unknown
Sunlit
N/A
Visualization observer readout
Local Sidereal Time
10:09:27
Azimuth
Unknown
Elevation
Unknown
Doppler factor
Unknown
Orbital elements
Apogee altitude
18,545.278 km
Perigee altitude
516.405 km
Semi-major axis
15,908.979 km
Eccentricity
0.56663
Inclination
64.7889°
RAAN
151.6143°
Arg. of periapsis
320.4003°
True anomaly
39.85507°
Mean anomaly
9.6445°
Eccentric anomaly
21.59104°
Mean motion
1.08163 °/min
Orbital period
332.83 mins
BSTAR
0.00041971
Loading maneuver chart data...
Computing Atmospheric mass density...
Loading historical data...
Loading historical data...
Loading historical data...
Loading historical data...
Loading historical data...
Loading historical data...
Loading historical data...

Documentation

Showing up to 5 results
|